Volver al catálogo

STARLINK-1122

ActivoComunicacionesVLEO
NORAD 44949·PAYLOAD·🇺🇸 United States

Lanzado Jan 7, 2020 desde Cape Canaveral Space Force Station

Loading…

Próximos Pases (próximas 24 horas)

TLE

ActualizadoSource: CelesTrak SupGP

Época: Sep 15, 2026, 01:00 UTC

1 44949C 20001AM  26258.04215278  .00075382  00000+0  71645-3 0  2583
2 44949  53.1470 131.5310 0002663  84.2773 104.2339 15.66166462    10

Sigue STARLINK-1122 en tiempo real con AllMySat

Download on the App Store